Casa Grande, AZ

5:13 PM MST on November 20, 2019 (GMT -0700)
Casa Grande Municipal

Weather History for KCGZ - September, 2019

Change the Weather History Date:

Sunday, September 15, 2019

  Actual Average Record
Temperature  
Mean Temperature 86 °F -  
Max Temperature 95 °F 95 °F 107 °F (2000)
Min Temperature 78 °F 69 °F 59 °F (1996)
Cooling Degree Days 22    
Growing Degree Days 36 (Base 50)    
Moisture  
Dew Point 57 °F    
Average Humidity 38    
Maximum Humidity 52    
Minimum Humidity 27    
Precipitation  
Precipitation 0.00 in - - ()
Sea Level Pressure  
Sea Level Pressure 29.87 in    
Wind  
Wind Speed 8 mph ()    
Max Wind Speed 17 mph    
Max Gust Speed 21 mph    
Visibility 10.0 miles    
Events      
Averages and records for this station are not official NWS values.
T = Trace of Precipitation, MM = Missing Value Source: Averaged Metar Reports

Daily Weather History Graph

Daily Weather History Graph

Search for Another Location

Airport or City:

Astronomy

Sep. 15, 2019 Rise Set
Actual Time 6:10 AM MST 6:33 PM MST
Civil Twilight 5:45 AM MST 6:58 PM MST
Nautical Twilight 5:16 AM MST 7:27 PM MST
Astronomical Twilight 4:47 AM MST 7:56 PM MST
Moon 7:46 PM MST (9/15) 7:22 AM MST (9/15)
Length of Visible Light 13h 12m
Length of Day
12h 22m
Full, 98% of the Moon is Illuminated
Sep 15
Full
Sep 21
Last Quarter
Sep 28
New
Oct 5
First Quarter
Oct 13
Full

Hourly Weather History & Observations

Time (MST) Temp. Heat Index Dew Point Humidity Pressure Visibility Wind Dir Wind Speed Gust Speed Precip Events Conditions
12:56 AM 82.0 °F 81.6 °F 55.9 °F 41% 29.92 in 10.0 mi East 9.2 mph - N/A   Clear
1:56 AM 81.0 °F 81.0 °F 57.0 °F 44% 29.90 in 10.0 mi East 11.5 mph - N/A   Clear
2:56 AM 81.0 °F 81.0 °F 57.0 °F 44% 29.88 in 10.0 mi East 11.5 mph - N/A   Clear
3:56 AM 78.1 °F - 55.9 °F 46% 29.90 in 10.0 mi ENE 9.2 mph - N/A   Clear
4:56 AM 80.1 °F 80.6 °F 57.9 °F 47% 29.90 in 10.0 mi ENE 15.0 mph - N/A   Clear
5:56 AM 80.1 °F 80.6 °F 57.9 °F 47% 29.90 in 10.0 mi ENE 13.8 mph - N/A   Clear
6:56 AM 79.0 °F - 60.1 °F 52% 29.91 in 10.0 mi East 17.3 mph 20.7 mph N/A   Clear
7:56 AM 81.0 °F 81.9 °F 62.1 °F 52% 29.92 in 10.0 mi ENE 15.0 mph - N/A   Clear
8:56 AM 82.9 °F 83.7 °F 62.1 °F 49% 29.94 in 10.0 mi East 13.8 mph - N/A   Clear
9:56 AM 84.0 °F 84.4 °F 61.0 °F 46% 29.95 in 10.0 mi East 10.4 mph - N/A   Clear
10:56 AM 88.0 °F 87.9 °F 61.0 °F 40% 29.94 in 10.0 mi ENE 5.8 mph - N/A   Clear
11:56 AM 90.0 °F 90.0 °F 61.0 °F 38% 29.91 in 10.0 mi ESE 8.1 mph 16.1 mph N/A   Clear
12:56 PM 91.0 °F 90.5 °F 60.1 °F 35% 29.88 in 10.0 mi Variable 4.6 mph - N/A   Clear
1:56 PM 93.9 °F 92.9 °F 57.9 °F 30% 29.85 in 10.0 mi NNE 5.8 mph - N/A   Clear
2:56 PM 93.9 °F 92.6 °F 57.0 °F 29% 29.82 in 10.0 mi East 8.1 mph - N/A   Clear
3:56 PM 95.0 °F 93.4 °F 55.9 °F 27% 29.80 in 10.0 mi Variable 3.5 mph - N/A   Clear
4:56 PM 93.9 °F 92.2 °F 55.9 °F 28% 29.78 in 10.0 mi Calm Calm - N/A   Clear
5:56 PM 95.0 °F 93.4 °F 55.9 °F 27% 29.79 in 10.0 mi Variable 3.5 mph - N/A   Clear
6:56 PM 93.0 °F 91.1 °F 55.0 °F 28% 29.80 in 10.0 mi Calm Calm - N/A   Clear
7:56 PM 89.1 °F 86.9 °F 54.0 °F 30% 29.82 in 10.0 mi ENE 6.9 mph - N/A   Clear
8:56 PM 88.0 °F 85.7 °F 53.1 °F 30% 29.82 in 10.0 mi ENE 4.6 mph - N/A   Clear
9:56 PM 84.9 °F - 52.0 °F 32% 29.83 in 10.0 mi North 4.6 mph - N/A   Clear
10:56 PM 84.9 °F 83.2 °F 53.1 °F 33% 29.84 in 10.0 mi Calm Calm - N/A   Clear
11:56 PM 81.0 °F - 52.0 °F 36% 29.85 in 10.0 mi NE 3.5 mph - N/A   Clear